Regional Weather Roundup
Issued by NWS

Home | Current Version | Previous Version | Graphics & Text | Print | Product List | Glossary On
Versions: 1 2 3 4 5 6 7 8 9 10 11 12 13 14 15 16 17 18 19 20 21 22 23 24 25 26 27 28 29 30 31 32 33 34 35 36 37 38 39 40 41 42 43 44 45 46 47 48 49 50
000
ASUS43 KOAX 271302
RWRNE

WEATHER ROUNDUP FOR NEBRASKA
NATIONAL WEATHER SERVICE OMAHA NE
800 AM CDT THU JUL 27 2017

NOTES: SATELLITE DATA IS BEING USED TO AUGMENT CLOUD COVER ABOVE
       12000 FEET.
       "FAIR" INDICATES FEW OR NO CLOUDS BELOW 12,000 FEET WITH NO
       SIGNIFICANT WEATHER AND/OR OBSTRUCTIONS TO VISIBILITY.


NEZ001>004-019>022-054>056-271400-
NEBRASKA PANHANDLE

CITY           SKY/WX    TMP DP  RH WIND       PRES   REMARKS
SCOTTSBLUFF    CLOUDY    67  65  93 E13       30.19S FOG
ALLIANCE       CLOUDY    68  60  75 SE14      30.20S
CHADRON        CLOUDY    70  65  84 S13       30.15F
GORDON         CLOUDY    66  56  72 SE10G16   30.19F
KIMBALL        CLOUDY    63  63 100 SE8       30.24S FOG
SIDNEY         CLOUDY    66  64  93 SE10      30.24S
$$

NEZ057>060-069>072-079>082-271400-
SOUTHWEST NEBRASKA

CITY           SKY/WX    TMP DP  RH WIND       PRES   REMARKS
NORTH PLATTE   CLOUDY    67  61  81 E6        30.18S
IMPERIAL       CLOUDY    69  64  84 E8        30.18S
LEXINGTON      CLOUDY    67  61  81 NE7       30.16R
MCCOOK         CLOUDY    70  67  90 NE10      30.16R
OGALLALA       CLOUDY    68  62  82 E6        30.20S
$$

NEZ005>010-023>029-035>040-094-271400-
NORTH CENTRAL NEBRASKA

CITY           SKY/WX    TMP DP  RH WIND       PRES   REMARKS
VALENTINE      CLOUDY    67  57  70 CALM      30.17S
AINSWORTH      SUNNY     63  60  88 CALM      30.17S
BROKEN BOW     SUNNY     67  61  81 E5        30.16R
O`NEILL        SUNNY     65  64  94 N3        30.15S
ORD            SUNNY     66  60  81 CALM      30.14R
THEDFORD       SUNNY     64  61  90 CALM      30.20R
$$

NEZ041-046>049-061>064-073>077-083>087-271400-
SOUTH CENTRAL NEBRASKA

CITY           SKY/WX    TMP DP  RH WIND       PRES   REMARKS
GRAND ISLAND   SUNNY     67  64  90 NE8       30.13R
AURORA         SUNNY     67  65  94 NE8       30.11R
HASTINGS       CLOUDY    68  63  84 NE8       30.13R
HEBRON         CLOUDY    75  71  87 NE9       30.07R
HOLDREGE       CLOUDY    66  62  87 NE8       30.14R
KEARNEY        CLOUDY    67  63  87 NE10      30.14R
YORK           SUNNY     66  64  94 NE7       30.10R
$$

NEZ011>018-030>034-042>045-271400-
NORTHEAST NEBRASKA

CITY           SKY/WX    TMP DP  RH WIND       PRES   REMARKS
NORFOLK        SUNNY     67  60  78 N7        30.10F
ALBION         SUNNY     68  63  84 N5        30.13R
BLAIR          RAIN      68  65  89 N9        30.06S
COLUMBUS       SUNNY     67  63  87 N6        30.11R
FREMONT        SUNNY     68  64  88 CALM      30.08S
TEKAMAH        SUNNY     68  63  84 N8        30.07R
WAYNE          SUNNY     65  65  99 CALM      30.11F
$$

NEZ050>053-065>068-078-088>093-271400-
SOUTHEAST NEBRASKA

CITY           SKY/WX    TMP DP  RH WIND       PRES   REMARKS
LINCOLN        SUNNY     71  65  81 N10       30.07R
OMAHA EPPLEY   MOSUNNY   69  65  86 N10       30.05S
BEATRICE       MOSUNNY   73  70  92 NE10      30.05R
FALLS CITY     CLOUDY    73  71  93 NE10      30.00R
NEBRASKA CITY  CLOUDY    71  71 100 NE6       30.04R
$$

NEZ044-045-051>053-067-271400-
OMAHA AREA

CITY           SKY/WX    TMP DP  RH WIND       PRES   REMARKS
OMAHA EPPLEY   MOSUNNY   69  65  86 N10       30.05S
BLAIR          RAIN      68  65  89 N9        30.06S
FREMONT        SUNNY     68  64  88 CALM      30.08S
MILLARD        SUNNY     71  67  85 N5        30.06R
OFFUTT AFB     SUNNY     70  64  80 N7        30.04R
WAHOO          FAIR      67  66  94 N5        30.08R
$$




USA.gov is the U.S. government's official web portal to all federal, state and local government web resources and services.